Andrews, NC

4:44 PM EDT on June 25, 2017 (GMT -0400)
Andrews

Weather History for KRHP - April, 2014

Change the Weather History Date:

Saturday, April 26, 2014

  Actual Average (KMMI) Record (KMMI)
Temperature  
Mean Temperature 60 °F -  
Max Temperature 81 °F 72 °F 82 °F (2014)
Min Temperature 39 °F 44 °F 41 °F (2014)
Degree Days  
Heating Degree Days 5    
Growing Degree Days 10 (Base 50)    
Moisture  
Dew Point 42 °F    
Average Humidity 63    
Maximum Humidity 100    
Minimum Humidity 18    
Precipitation  
Precipitation 0.00 in - - ()
Sea Level Pressure  
Sea Level Pressure 30.01 in    
Wind  
Wind Speed 2 mph (West)    
Max Wind Speed 12 mph    
Max Gust Speed 17 mph    
Visibility 9 miles    
Events      
Averages and records for this station are not official NWS values.
T = Trace of Precipitation, MM = Missing Value Source: NWS Daily Summary

Daily Weather History Graph

Daily Weather History Graph

Search for Another Location

Airport or City:

Trip Planner

Search our weather history database for the weather conditions in past years. The results will help you decide how hot, cold, wet, or windy it might be!

Date:

Astronomy

Apr. 26, 2014 Rise Set
Actual Time 6:49 AM EDT 8:17 PM EDT
Civil Twilight 6:23 AM EDT 8:44 PM EDT
Nautical Twilight 5:50 AM EDT 9:16 PM EDT
Astronomical Twilight 5:17 AM EDT 9:49 PM EDT
Moon 5:06 AM EDT (4/26) 5:50 PM EDT (4/26)
Length of Visible Light 14h 20m
Length of Day
13h 27m
Waning Crescent, 8% of the Moon is Illuminated
Apr 26
Waning Crescent
Apr 29
New
May 6
First Quarter
May 14
Full
May 21
Last Quarter

Hourly Weather History & Observations

Time (EDT) Temp. Windchill Dew Point Humidity Pressure Visibility Wind Dir Wind Speed Gust Speed Precip Events Conditions
12:15 AM 47.8 °F - 45.5 °F 92% 30.00 in 10.0 mi Calm Calm - N/A   Clear
12:35 AM 47.5 °F - 45.3 °F 92% 30.00 in 10.0 mi Calm Calm - N/A   Clear
12:55 AM 45.5 °F - 44.6 °F 97% 30.00 in 10.0 mi Calm Calm - N/A   Clear
1:15 AM 46.4 °F - 44.8 °F 94% 30.00 in 10.0 mi Calm Calm - N/A   Clear
1:35 AM 45.3 °F - 44.1 °F 95% 30.00 in 10.0 mi Calm Calm - N/A   Clear
1:55 AM 44.8 °F - 44.2 °F 98% 29.99 in 10.0 mi Calm Calm - N/A   Clear
2:15 AM 44.1 °F - 43.5 °F 98% 29.99 in 10.0 mi Calm Calm - N/A   Clear
2:35 AM 42.4 °F 40.7 °F 42.1 °F 99% 29.99 in 4.0 mi WNW 3.5 mph - N/A   Clear
2:55 AM 42.6 °F - 42.1 °F 98% 29.99 in 10.0 mi Calm Calm - N/A   Clear
3:15 AM 43.3 °F - 43.2 °F 99% 29.99 in 5.0 mi Calm Calm - N/A   Clear
3:35 AM 41.4 °F - 41.0 °F 99% 29.99 in 3.0 mi Calm Calm - N/A   Clear
3:55 AM 41.9 °F - 41.9 °F 100% 29.99 in 2.5 mi Calm Calm - N/A   Clear
4:15 AM 41.0 °F - 40.3 °F 97% 29.99 in 10.0 mi Calm Calm - N/A   Clear
4:35 AM 41.2 °F - 40.8 °F 99% 30.00 in 7.0 mi Calm Calm - N/A   Clear
4:55 AM 40.1 °F - 39.7 °F 99% 30.01 in 3.0 mi Calm Calm - N/A   Clear
5:15 AM 40.6 °F 38.6 °F 40.5 °F 99% 30.02 in 3.0 mi NE 3.5 mph - N/A   Clear
5:35 AM 40.6 °F 38.6 °F 40.3 °F 99% 30.02 in 10.0 mi East 3.5 mph - N/A   Clear
5:55 AM 41.7 °F - 41.2 °F 98% 30.03 in 10.0 mi Calm Calm - N/A   Clear
6:15 AM 41.2 °F - 40.3 °F 97% 30.03 in 10.0 mi Calm Calm - N/A   Clear
6:35 AM 41.2 °F - 40.8 °F 99% 30.04 in 10.0 mi Calm Calm - N/A   Clear
6:55 AM 40.5 °F - 39.9 °F 98% 30.05 in 5.0 mi Calm Calm - N/A   Clear
7:15 AM 39.7 °F - 39.2 °F 98% 30.06 in 10.0 mi Calm Calm - N/A   Clear
7:35 AM 40.1 °F - 40.1 °F 100% 30.06 in 3.0 mi Calm Calm - N/A   Clear
7:55 AM 40.5 °F 38.4 °F 40.3 °F 99% 30.07 in 5.0 mi WSW 3.5 mph - N/A   Clear
8:15 AM 42.4 °F - 42.3 °F 99% 30.08 in 7.0 mi Calm Calm - N/A   Clear
8:35 AM 45.1 °F - 43.9 °F 95% 30.07 in 10.0 mi Calm Calm - N/A   Clear
8:55 AM 47.3 °F - 45.3 °F 93% 30.08 in 10.0 mi Calm Calm - N/A   Clear
9:15 AM 50.4 °F - 45.0 °F 82% 30.07 in 10.0 mi Calm Calm - N/A   Clear
9:35 AM 53.4 °F - 46.0 °F 76% 30.07 in 10.0 mi Calm Calm - N/A   Clear
9:55 AM 56.7 °F - 46.9 °F 70% 30.07 in 10.0 mi Calm Calm - N/A   Clear
10:15 AM 60.4 °F - 44.8 °F 56% 30.07 in 10.0 mi Calm Calm - N/A   Clear
10:35 AM 63.0 °F - 41.9 °F 46% 30.07 in 10.0 mi Calm Calm - N/A   Clear
10:55 AM 65.7 °F - 43.9 °F 45% 30.06 in 10.0 mi Calm Calm - N/A   Clear
11:15 AM 67.6 °F - 41.2 °F 38% 30.07 in 10.0 mi WSW 4.6 mph - N/A   Clear
11:35 AM 69.1 °F - 43.0 °F 39% 30.06 in 10.0 mi WSW 4.6 mph - N/A   Clear
11:55 AM 70.9 °F - 45.5 °F 40% 30.06 in 10.0 mi West 5.8 mph - N/A   Clear
12:15 PM 72.7 °F - 42.8 °F 34% 30.06 in 10.0 mi West 5.8 mph - N/A   Clear
12:35 PM 73.6 °F - 41.0 °F 31% 30.04 in 10.0 mi West 6.9 mph - N/A   Clear
12:55 PM 74.7 °F - 38.1 °F 27% 30.03 in 10.0 mi Calm Calm - N/A   Clear
1:15 PM 75.6 °F - 35.2 °F 23% 30.03 in 10.0 mi Calm Calm - N/A   Clear
1:35 PM 76.6 °F - 36.1 °F 23% 30.01 in 10.0 mi WNW 5.8 mph - N/A   Clear
1:55 PM 78.3 °F - 39.0 °F 24% 30.01 in 10.0 mi WSW 8.1 mph - N/A   Clear
2:15 PM 79.3 °F - 38.5 °F 23% 30.00 in 10.0 mi WSW 4.6 mph - N/A   Clear
2:35 PM 79.7 °F - 38.1 °F 23% 30.00 in 10.0 mi West 5.8 mph - N/A   Clear
2:55 PM 80.4 °F - 36.9 °F 21% 29.99 in 10.0 mi West 6.9 mph - N/A   Clear
3:15 PM 80.4 °F - 35.4 °F 20% 29.99 in 10.0 mi West 11.5 mph - N/A   Clear
3:35 PM 80.8 °F - 32.9 °F 18% 29.99 in 10.0 mi West 5.8 mph - N/A   Clear
3:55 PM 81.9 °F - 36.3 °F 20% 29.98 in 10.0 mi West 10.4 mph - N/A   Clear
4:15 PM 81.0 °F - 33.3 °F 18% 29.97 in 10.0 mi SSW 3.5 mph - N/A   Clear
4:35 PM 81.1 °F - 36.0 °F 20% 29.96 in 10.0 mi WSW 3.5 mph - N/A   Clear
4:55 PM 81.9 °F - 36.0 °F 19% 29.96 in 10.0 mi West 6.9 mph - N/A   Clear
5:15 PM 81.9 °F - 35.6 °F 19% 29.96 in 10.0 mi West 5.8 mph - N/A   Clear
5:35 PM 81.5 °F - 37.6 °F 21% 29.96 in 10.0 mi SW 9.2 mph - N/A   Clear
5:55 PM 81.5 °F - 34.2 °F 18% 29.96 in 10.0 mi West 9.2 mph 17.3 mph N/A   Clear
6:15 PM 81.1 °F - 37.9 °F 21% 29.96 in 10.0 mi WSW 8.1 mph 17.3 mph N/A   Clear
6:35 PM 80.6 °F - 37.4 °F 21% 29.96 in 10.0 mi West 8.1 mph - N/A   Clear
6:55 PM 78.3 °F - 39.6 °F 25% 29.96 in 10.0 mi WSW 6.9 mph - N/A   Clear
7:15 PM 77.2 °F - 40.6 °F 27% 29.96 in 10.0 mi SSW 6.9 mph - N/A   Clear
7:35 PM 74.8 °F - 45.9 °F 36% 29.97 in 10.0 mi WNW 9.2 mph - N/A   Clear
7:55 PM 73.6 °F - 45.7 °F 37% 29.97 in 10.0 mi WNW 5.8 mph - N/A   Clear
8:15 PM 69.4 °F - 47.1 °F 45% 29.97 in 10.0 mi Calm Calm - N/A   Clear
8:35 PM 66.7 °F - 47.5 °F 50% 29.99 in 10.0 mi Calm Calm - N/A   Clear
8:55 PM 63.3 °F - 48.2 °F 58% 29.99 in 10.0 mi Calm Calm - N/A   Clear
9:15 PM 61.0 °F - 48.4 °F 63% 30.00 in 10.0 mi Calm Calm - N/A   Clear
9:35 PM 60.1 °F - 48.0 °F 64% 30.01 in 10.0 mi Calm Calm - N/A   Clear
10:15 PM 56.7 °F - 48.7 °F 75% 30.03 in 10.0 mi Calm Calm - N/A   Clear
10:35 PM 56.1 °F - 48.2 °F 75% 30.03 in 10.0 mi Calm Calm - N/A   Clear
10:55 PM 55.0 °F - 48.6 °F 79% 30.03 in 10.0 mi Calm Calm - N/A   Clear
11:15 PM 54.1 °F - 47.8 °F 79% 30.03 in 10.0 mi Calm Calm - N/A   Clear
11:35 PM 54.0 °F - 48.0 °F 80% 30.03 in 10.0 mi Calm Calm - N/A   Clear
11:55 PM 52.0 °F - 46.4 °F 81% 30.03 in 10.0 mi Calm Calm - N/A   Clear